Wind_Speed
14 15 14 14 13 11 11 12 12 13 13 13 12 11 11 12 11 13 11 15 16 17 18 17 17 19 17 18 18 16 18 19 13 23 24 26 27 29 29 32 30 33 38
13 13 12 13 14 14 14 14 13 11 9 10 10 9 9 8 9 10 11 9 9 9 9 8 10 11 13 15 17 19 21 22 22 20 23 23 24 28 32 32 32 34 38
14 14 14 15 16 16 17 16 15 14 13 11 9 7 7 6 6 6 9 10 9 10 12 13 15 16 17 19 19 17 17 19 20 21 24 23 24 26 28 31 34 34 35
13 14 14 14 15 15 15 15 16 15 14 13 13 12 10 8 7 6 6 8 9 11 13 14 16 17 17 18 17 18 17 18 19 20 22 22 22 24 26 27 24 25 27
10 13 14 14 13 13 13 13 13 13 12 11 11 11 11 9 12 10 8 8 8 9 9 10 11 12 14 15 15 16 15 17 17 19 21 21 20 20 19 24 24 23 24
6 8 8 10 12 12 12 12 11 11 11 10 10 10 10 10 11 10 7 6 6 8 9 10 11 11 11 11 11 12 13 14 17 19 19 19 20 14 13 17 13 7 3
4 5 6 8 9 10 10 10 12 12 11 12 11 10 10 11 10 9 7 6 6 7 8 8 8 9 9 7 8 5 5 6 8 8 5 10 8 11 10 10 10 7 6
5 4 4 5 6 6 7 8 8 8 8 8 9 8 9 10 8 6 6 7 8 9 9 8 7 8 8 4 1 5 10 12 12 12 13 15 12 10 8 9 11 4 6
7 5 5 5 5 5 5 5 5 5 6 7 7 8 9 11 10 7 6 8 10 10 10 12 10 10 9 5 5 7 8 8 9 9 9 8 8 12 12 9 13 10 4
8 6 5 5 5 5 5 5 4 4 4 4 4 5 5 7 9 6 4 6 7 7 7 8 11 10 9 8 7 6 7 5 4 4 5 8 10 11 11 11 10 6 2
10 9 8 7 7 6 6 6 6 6 6 6 5 5 5 5 6 7 4 3 4 5 6 8 9 10 10 10 6 6 4 2 3 4 7 9 11 13 13 12 10 9 5
13 12 11 10 9 9 9 8 8 8 8 8 7 6 5 4 3 4 5 3 2 2 5 5 7 10 11 11 10 8 5 5 6 6 7 8 9 11 11 10 9 8 4
16 16 15 13 13 12 12 11 9 7 8 8 7 7 7 5 3 1 1 2 3 4 4 5 5 5 6 9 9 8 7 7 7 7 7 7 9 10 9 6 6 4 5
19 20 18 17 16 15 15 13 11 11 10 10 9 10 9 8 7 6 6 3 3 3 4 3 3 3 4 4 5 6 6 6 6 5 4 3 4 5 7 9 9 10 4
23 25 23 21 20 19 18 16 16 16 15 14 12 11 10 11 10 9 8 8 7 6 5 4 4 2 0 1 2 4 4 4 4 5 4 4 4 5 7 8 8 8 6
24 27 27 25 24 23 22 21 19 19 17 16 15 14 12 13 11 9 9 9 9 9 7 7 6 5 4 3 1 1 2 2 2 3 4 4 4 5 6 8 8 7 6
25 27 26 24 24 25 23 21 20 20 17 18 19 18 16 15 12 12 11 10 10 11 11 9 9 8 6 4 3 3 2 1 0 2 3 3 4 4 5 6 7 7 7
21 23 25 26 25 24 24 24 24 21 16 21 20 20 19 18 16 14 14 11 13 16 17 15 13 11 9 8 6 5 3 3 3 2 1 1 2 3 4 5 6 7 8
14 18 20 22 23 23 22 22 23 23 23 25 24 20 20 20 18 17 16 20 19 21 20 18 15 13 13 11 10 8 6 6 6 6 3 1 0 1 2 4 5 5 7
11 13 15 17 18 19 20 21 21 21 21 22 21 25 23 18 21 23 24 25 25 25 24 22 18 16 15 14 13 11 10 8 8 8 6 4 3 3 1 3 4 6 6
10 12 12 13 15 18 18 19 20 19 20 20 24 25 23 20 25 25 25 28 29 28 26 23 20 17 17 16 15 15 13 10 10 10 10 8 5 5 3 3 4 6 7
11 13 14 14 14 15 17 17 17 18 19 19 21 22 17 19 23 25 26 27 27 27 25 23 20 19 18 18 17 16 15 13 13 12 12 11 7 7 4 3 4 5 7
15 14 15 17 16 14 14 15 16 18 18 19 19 20 18 18 22 25 27 25 22 21 21 20 20 19 17 17 15 14 15 14 13 13 13 12 9 8 5 3 4 5 6
12 16 16 14 14 12 14 15 16 17 18 18 19 19 18 18 19 21 23 22 19 16 17 17 18 17 16 15 14 14 13 12 12 12 12 12 11 9 6 4 4 4 7
11 14 16 17 17 15 15 16 16 17 18 18 18 17 17 16 17 18 17 17 15 15 15 16 16 16 16 15 14 13 12 12 11 10 11 11 10 8 6 4 4 4 5
14 14 16 17 17 18 18 17 17 16 15 15 15 15 14 14 14 14 13 13 13 14 15 16 16 17 16 14 13 12 12 13 11 10 9 10 9 8 7 5 4 5 4
Wind_Direction
351 6 359 353 351 349 337 326 318 315 320 319 313 300 284 274 266 265 282 269 262 251 258 257 257 260 258 257 257 251 251 249 261 271 266 268 269 273 273 271 263 262 267
0 10 7 5 6 3 357 358 354 337 329 329 327 320 310 296 287 265 263 266 256 251 257 258 264 268 265 264 262 260 259 257 252 267 270 269 269 270 265 268 271 269 265
11 9 8 9 9 9 11 9 8 8 9 6 357 349 341 332 318 288 276 277 272 266 267 269 271 275 275 274 273 271 271 271 271 272 275 270 267 267 266 270 270 267 267
22 23 20 19 17 17 18 23 27 28 26 23 22 25 28 33 13 344 311 295 288 286 285 286 287 286 284 283 279 274 275 276 277 274 278 281 275 274 273 268 261 258 260
27 32 29 28 23 19 22 27 33 38 40 41 42 40 35 29 8 353 340 328 321 324 324 323 319 304 291 290 286 284 282 280 277 277 277 278 278 281 270 273 268 267 264
21 28 24 32 31 30 31 30 32 37 37 38 42 48 45 32 16 11 6 7 360 352 341 334 333 328 324 321 316 305 293 282 283 282 279 277 279 316 319 294 272 273 261
335 1 23 33 34 35 34 42 47 45 43 45 46 48 42 29 17 18 33 47 41 34 19 5 358 354 344 338 339 349 3 29 28 331 341 7 336 338 336 332 6 42 19
293 311 350 13 22 27 32 41 53 52 54 57 56 57 54 38 32 43 65 83 82 67 52 41 34 16 3 348 339 74 61 48 48 56 58 55 31 26 36 33 27 46 72
291 305 321 331 342 351 4 12 16 25 37 45 48 49 51 43 32 49 75 91 94 88 71 56 52 50 35 59 118 110 97 81 67 63 62 60 27 30 28 18 36 39 15
267 270 283 294 304 313 318 321 332 343 355 3 11 28 42 41 36 50 90 114 109 100 86 77 61 67 64 71 94 116 114 91 87 67 18 359 4 12 16 31 33 49 74
256 255 260 265 269 277 290 292 291 294 297 304 314 328 348 8 32 28 60 101 110 105 79 62 54 51 56 62 74 85 104 124 31 24 25 27 31 34 34 36 38 47 27
252 252 255 258 261 264 269 274 279 287 296 302 309 318 325 339 10 18 31 64 106 82 93 82 76 65 60 65 69 77 88 84 79 62 52 45 42 39 35 36 32 32 46
249 250 253 255 259 262 265 270 273 276 278 284 282 284 286 283 257 182 343 57 97 110 109 113 107 81 72 67 62 66 56 54 55 56 49 37 29 17 7 7 12 44 92
251 255 256 256 259 260 261 264 266 265 260 257 257 262 270 269 261 245 235 229 195 157 140 123 104 87 68 63 58 54 54 49 51 53 49 34 14 23 26 25 19 16 35
255 260 260 258 261 265 264 263 263 267 262 262 259 260 260 265 267 253 245 239 228 218 203 212 233 236 269 21 31 46 57 59 48 46 42 37 31 33 34 30 33 41 52
254 257 260 260 260 261 264 268 265 268 267 268 270 267 267 265 257 246 240 239 231 216 223 242 250 242 235 234 248 329 28 46 46 38 42 49 44 40 40 37 37 34 15
250 256 260 261 261 261 261 260 267 275 266 261 258 261 261 268 260 246 236 234 227 207 238 259 262 256 252 248 261 282 285 288 17 48 63 61 59 62 57 42 25 22 12
263 265 268 270 270 268 265 266 267 266 270 271 265 260 259 258 251 242 237 231 231 227 242 251 259 253 244 241 245 248 262 254 238 236 183 87 94 75 45 34 26 5 350
274 272 272 274 277 278 275 270 268 265 263 267 274 265 259 256 247 241 237 231 229 239 240 247 255 249 240 238 237 237 247 251 244 236 233 257 217 25 31 14 1 349 344
285 284 282 277 275 271 271 268 266 262 260 264 265 268 270 253 241 233 231 232 237 243 251 252 256 252 243 238 235 236 239 238 240 247 242 237 249 232 274 338 336 334 334
287 285 282 275 271 273 271 268 268 263 259 260 268 277 272 250 246 240 236 236 240 245 252 252 252 246 241 238 236 235 237 241 246 247 240 233 239 230 251 298 320 328 326
297 294 288 280 279 273 270 269 266 263 262 260 269 277 272 239 246 246 244 247 253 254 255 252 248 244 240 236 237 236 237 242 244 244 234 229 233 224 247 290 317 328 328
301 299 297 292 284 278 272 269 266 264 261 264 270 272 271 257 248 250 253 254 252 258 253 244 240 237 234 233 235 238 242 246 249 244 233 225 223 218 236 282 313 326 330
302 305 303 293 285 278 272 267 266 265 263 263 265 267 266 267 263 258 258 255 251 250 246 238 230 228 228 228 231 233 240 238 237 240 228 220 213 217 237 268 302 312 322
300 301 302 296 286 278 272 264 260 263 262 262 265 267 268 268 266 263 256 251 240 233 232 224 219 218 223 225 221 227 233 230 229 220 212 207 210 219 247 271 288 300 322
295 298 298 293 281 275 268 261 260 260 263 267 269 266 268 267 266 261 248 230 220 217 216 214 209 217 218 216 223 221 225 222 215 211 210 206 213 235 242 267 267 280 305
Height
780 776 775 772 768 764 761 759 756 753 751 749 748 747 747 746 747 748 747 749 749 749 750 750 751 751 751 752 753 753 753 752 750 747 747 747 745 743 743 742 741 740 739
780 777 774 772 768 765 761 758 755 752 750 748 746 746 745 745 745 744 746 747 746 746 747 748 748 748 748 748 748 748 747 747 746 742 742 741 740 738 734 734 733 732 731
780 778 775 772 768 765 761 758 755 751 749 747 746 745 744 744 743 744 744 744 744 744 745 745 745 745 745 745 744 744 744 743 742 740 734 734 733 731 728 725 724 723 722
780 777 774 772 769 766 763 760 757 754 751 749 747 746 745 744 744 743 742 742 742 742 742 742 742 742 741 740 739 739 738 738 737 735 731 728 727 725 724 720 715 715 713
780 777 775 772 770 767 764 761 758 756 753 751 749 747 746 744 743 742 741 740 739 739 739 739 738 738 737 737 736 734 734 733 731 729 727 724 721 720 718 714 711 708 706
779 777 775 772 769 766 763 761 759 756 754 752 750 748 746 745 743 741 739 738 737 737 737 737 736 735 734 733 733 731 730 728 727 726 722 720 717 717 713 710 706 703 702
778 776 773 771 768 766 764 761 759 757 755 752 750 748 746 744 742 739 738 737 736 735 734 733 733 732 731 731 731 730 728 727 726 724 722 721 719 717 712 709 702 704 707
774 773 771 769 767 765 763 761 758 756 754 751 749 747 745 743 740 738 736 735 734 734 734 733 731 730 729 728 728 728 728 727 725 723 726 722 723 719 713 712 709 708 707
771 770 769 767 766 764 762 760 758 756 754 752 751 748 746 744 742 739 737 736 734 734 734 733 732 731 729 727 725 726 727 727 728 727 725 724 726 718 715 712 710 710 711
766 765 764 762 761 760 758 757 755 754 753 751 750 747 746 743 741 739 737 735 734 734 733 732 731 729 728 728 727 727 727 728 727 725 725 723 720 718 716 713 712 711 710
760 760 759 757 756 754 754 753 751 751 750 749 747 746 745 744 742 740 738 736 735 734 734 734 734 732 730 729 727 727 726 727 726 725 725 723 722 720 718 716 715 714 715
757 756 755 753 752 750 749 748 748 748 748 747 747 746 744 743 742 740 737 736 735 734 734 733 733 732 732 730 729 728 726 726 725 726 725 724 722 721 720 719 718 716 717
752 751 749 749 748 747 746 746 745 745 745 744 743 742 741 740 739 739 737 736 736 735 734 734 733 732 731 731 730 730 730 729 727 726 726 726 725 725 723 721 719 718 717
748 747 746 746 745 744 743 743 742 741 740 738 738 738 738 738 739 738 738 738 738 738 737 736 735 734 734 734 732 731 730 730 730 728 727 726 725 724 722 722 721 719 718
742 741 740 740 740 740 740 739 738 737 737 736 735 734 734 734 735 735 736 736 736 737 737 737 736 735 734 734 734 733 731 731 731 730 729 728 727 725 724 723 721 720 719
734 733 733 734 734 734 734 734 734 732 732 732 732 731 730 730 730 731 732 733 733 733 734 734 735 734 732 732 732 732 731 731 731 729 728 727 726 726 725 724 722 722 722
726 725 725 726 728 729 729 729 728 726 726 726 726 726 727 727 728 729 730 730 730 732 731 731 732 732 731 732 732 732 731 730 730 729 728 728 727 726 725 724 725 723 722
723 723 723 722 722 723 723 723 724 724 723 721 722 721 721 722 723 724 725 727 727 727 726 727 728 729 729 729 729 729 729 730 730 729 727 726 726 726 725 725 724 724 723
716 716 717 717 717 717 718 717 717 717 717 715 715 717 718 717 718 720 722 721 720 721 721 722 722 723 724 725 726 727 727 728 729 729 728 727 726 726 725 725 725 725 723
710 711 711 710 710 709 710 710 710 710 710 711 710 709 711 714 713 712 713 714 715 715 716 718 720 722 722 722 723 724 724 725 727 728 727 726 725 726 725 725 725 724 723
704 704 704 704 703 703 702 702 703 703 702 702 702 702 703 704 704 705 705 706 707 708 710 712 714 714 716 718 720 720 721 722 724 724 725 724 724 725 724 724 724 723 721
701 700 700 697 695 695 694 693 694 694 696 695 693 694 695 697 696 695 696 697 699 701 702 705 707 708 710 712 714 716 717 719 721 722 722 723 722 723 723 722 722 721 720
700 697 695 695 692 689 688 687 687 688 687 687 687 688 688 689 689 689 689 689 692 695 696 698 701 703 705 708 709 712 713 715 716 718 718 719 720 721 721 720 720 719 719
695 695 693 691 688 684 682 682 681 681 680 679 680 680 680 681 681 681 681 683 685 688 691 693 695 699 701 704 705 708 710 711 713 713 715 716 717 718 718 718 717 717 717
688 687 687 687 684 681 679 676 673 674 673 673 673 673 674 674 675 675 675 677 680 683 686 688 691 694 699 700 701 704 707 708 709 710 712 713 715 716 716 715 715 715 714
684 682 680 679 678 677 674 671 669 668 667 666 668 668 668 669 670 670 670 672 675 678 681 684 686 689 692 697 698 701 704 706 707 708 710 711 712 713 713 713 712 712 712